FW8060 Weather Reports


Display with metric or nautical units.
time (UTC)temp
F
wind
direction
speed
MPH
gust
MPH
rain 1hr
in
rain 24hr
in
rain mn
in
humidity
%
barometer
mb
20260901100643 69 254 4.0 10.0 0.00 0.03 0.00 67 1020.9
20260901095638 69 291 5.0 11.0 0.00 0.03 0.00 69 1020.9
20260901094640 68 322 4.0 11.0 0.00 0.03 0.00 71 1020.9
20260901093638 67 288 3.0 7.0 0.00 0.03 0.00 72 1020.9
20260901092639 67 300 4.0 9.0 0.00 0.03 0.00 74 1020.9
20260901091636 68 245 3.0 8.0 0.00 0.03 0.00 74 1020.9
20260901090655 67 315 4.0 8.0 0.00 0.03 0.00 75 1020.6
20260901090638 67 175 3.0 8.0 0.00 0.03 0.00 74 1020.7
20260901084639 67 292 3.0 8.0 0.00 0.03 0.00 77 1020.6
20260901083815 67 271 3.0 8.0 0.00 0.03 0.00 79 1020.5
20260901083646 66 306 4.0 11.0 0.00 0.03 0.00 77 1020.6
20260901081637 66 302 3.0 7.0 0.00 0.03 0.00 80 1020.4
20260901080722 65 267 3.0 7.0 0.00 0.04 0.00 84 1020.3
20260901080638 66 286 3.0 7.0 0.00 0.03 0.00 82 1020.5
20260901074642 65 257 2.0 7.0 0.00 0.07 0.00 85 1020.1
20260901073816 62 250 2.0 8.0 0.00 0.19 0.00 93 1019.9
20260901073645 64 263 2.0 6.0 0.00 0.09 0.00 87 1020.0
20260901072632 63 260 2.0 7.0 0.00 0.11 0.00 91 1020.0
20260901070741 61 226 2.0 4.0 0.00 0.28 0.00 94 1019.7
20260901070634 61 224 2.0 6.0 0.00 0.20 0.00 94 1019.8
20260901065840 61 240 2.0 4.0 0.00 0.28 0.00 94 1019.7
20260901063633 61 223 2.0 5.0 0.00 0.28 0.00 95 1019.6
20260901062629 60 220 1.0 4.0 0.00 0.28 0.00 95 1019.6
20260901062536 60 232 2.0 5.0 0.00 0.29 0.00 95 1019.5
20260901061527 60 200 2.0 5.0 0.00 0.29 0.00 96 1019.4
20260901055631 60 180 2.0 6.0 0.00 0.29 0.00 95 1019.4
20260901055308 60 227 1.0 3.0 0.00 0.31 0.00 95 1018.9
20260901054655 60 236 1.0 4.0 0.00 0.29 0.00 95 1019.2
20260901053753 60 208 1.0 3.0 0.00 0.31 0.00 95 1019.2
20260901053656 60 220 2.0 4.0 0.00 0.31 0.00 95 1019.1
20260901053627 60 236 1.0 4.0 0.00 0.31 0.00 96 1019.1
20260901050827 59 220 2.0 4.0 0.00 0.31 0.00 95 1019.1
20260901045456 60 227 1.0 5.0 0.00 0.31 0.00 95 1018.9
20260901043614 60 226 2.0 4.0 0.00 0.31 0.00 95 1018.9
20260901042620 60 221 1.0 3.0 0.00 0.31 0.00 95 1018.8
20260901041626 60 221 2.0 5.0 0.00 0.31 0.00 95 1018.6
20260901040623 60 249 2.0 5.0 0.00 0.31 0.00 95 1018.6
20260901035620 60 227 2.0 5.0 0.00 0.31 0.00 95 1018.5
20260901034616 60 227 1.0 5.0 0.00 0.31 0.00 95 1018.4
20260901033618 60 187 2.0 5.0 0.00 0.31 0.00 95 1018.1
20260901032621 60 187 2.0 5.0 0.00 0.31 0.00 95 1018.2
20260901031617 60 186 1.0 4.0 0.00 0.31 0.00 95 1018.2
20260901030614 60 207 1.0 4.0 0.00 0.31 0.00 95 1018.2
20260901025615 61 230 1.0 4.0 0.00 0.31 0.00 95 1018.2
20260901024611 61 228 2.0 5.0 0.00 0.31 0.00 95 1018.1
20260901023611 61 226 3.0 7.0 0.00 0.31 0.00 95 1018.0
20260901022613 61 169 3.0 9.0 0.00 0.31 0.00 95 1018.2
20260901021615 61 202 2.0 5.0 0.00 0.31 0.00 95 1018.2
20260901020618 61 211 2.0 7.0 0.00 0.31 0.00 95 1018.1
20260901015623 61 233 2.0 6.0 0.00 0.31 0.00 95 1018.0
20260901015506 61 221 3.0 7.0 0.00 0.31 0.00 95 1018.1
20260901013623 61 192 3.0 7.0 0.00 0.31 0.00 94 1018.1
20260901012615 61 269 3.0 7.0 0.00 0.31 0.00 94 1018.1
20260901011613 62 233 3.0 7.0 0.00 0.31 0.00 94 1018.0
20260901010622 62 180 3.0 7.0 0.00 0.31 0.00 94 1018.0
20260901005614 62 236 2.0 6.0 0.00 0.31 0.00 93 1017.8
20260901004612 62 229 3.0 8.0 0.00 0.31 0.00 93 1017.9
20260901003613 62 267 3.0 6.0 0.00 0.31 0.00 93 1017.9
20260901002611 62 254 3.0 8.0 0.00 0.31 0.00 93 1018.0
20260901001619 62 190 3.0 8.0 0.00 0.31 0.00 93 1018.1
20260901000612 62 226 3.0 8.0 0.00 0.31 0.00 93 1018.0
20260831235611 62 201 3.0 8.0 0.00 0.31 0.00 93 1018.0
20260831234613 62 227 2.0 5.0 0.00 0.31 0.00 92 1018.0
20260831233613 62 236 2.0 5.0 0.00 0.31 0.00 92 1018.0
20260831232611 62 254 2.0 6.0 0.00 0.31 0.00 91 1017.9
20260831231625 62 171 2.0 5.0 0.00 0.31 0.00 91 1017.8
20260831230619 63 208 2.0 6.0 0.00 0.31 0.00 90 1017.9
20260831225618 63 157 2.0 6.0 0.00 0.31 0.00 90 1017.9
20260831224619 63 178 3.0 7.0 0.00 0.31 0.00 90 1017.9
20260831224544 63 185 3.0 7.0 0.00 0.31 0.00 90 1017.9
20260831222712 63 217 2.0 7.0 0.00 0.31 0.00 90 1017.9
20260831222617 63 231 4.0 10.0 0.00 0.31 0.00 90 1018.0
20260831220616 63 177 3.0 8.0 0.00 0.31 0.00 90 1017.7
20260831215619 63 171 3.0 7.0 0.00 0.31 0.31 89 1017.7
20260831214619 63 203 3.0 9.0 0.00 0.31 0.31 89 1017.7
20260831213616 63 185 3.0 8.0 0.00 0.31 0.31 88 1017.6
20260831212610 63 271 4.0 10.0 0.00 0.31 0.31 88 1017.5
20260831211611 63 185 4.0 10.0 0.00 0.31 0.31 88 1017.5
20260831211551 64 226 4.0 12.0 0.00 0.31 0.31 88 1017.5
20260831205610 64 236 4.0 10.0 0.00 0.31 0.31 88 1017.5
20260831204610 64 252 5.0 13.0 0.00 0.31 0.31 88 1017.3
20260831203616 63 212 4.0 11.0 0.00 0.31 0.31 88 1017.3
20260831202614 63 192 4.0 10.0 0.00 0.31 0.31 88 1017.4
20260831201612 64 256 4.0 10.0 0.00 0.32 0.31 87 1017.3
20260831200614 64 260 5.0 10.0 0.00 0.33 0.31 87 1017.3
20260831195614 64 226 4.0 9.0 0.00 0.47 0.31 87 1017.2
20260831194605 64 236 4.0 9.0 0.00 0.47 0.31 86 1017.1
20260831193605 64 194 4.0 10.0 0.00 0.47 0.31 86 1017.0
20260831192818 65 250 5.0 12.0 0.00 0.47 0.31 84 1016.4
20260831192609 64 224 4.0 11.0 0.00 0.47 0.31 85 1016.8
20260831191604 65 244 4.0 9.0 0.00 0.47 0.31 84 1016.7
20260831185600 65 246 4.0 9.0 0.00 0.47 0.31 83 1016.3
20260831184601 65 212 5.0 15.0 0.00 0.47 0.31 82 1016.4
20260831183600 66 246 5.0 13.0 0.00 0.47 0.31 81 1016.1
20260831182601 66 268 4.0 14.0 0.00 0.47 0.31 81 1016.0
20260831181601 67 233 6.0 16.0 0.00 0.47 0.31 79 1015.8
20260831180600 67 248 5.0 14.0 0.00 0.47 0.31 79 1015.7
20260831175557 67 262 4.0 12.0 0.00 0.47 0.31 78 1015.5
20260831174952 69 257 7.0 17.0 0.00 0.47 0.31 74 1015.1
20260831174820 69 288 8.0 19.0 0.00 0.47 0.31 74 1015.2
20260831174601 68 250 7.0 15.0 0.00 0.47 0.31 76 1015.5
20260831173601 69 257 7.0 16.0 0.00 0.47 0.31 75 1015.5
20260831170552 69 180 7.0 17.0 0.01 0.47 0.31 72 1015.0
20260831165556 69 275 8.0 19.0 0.01 0.47 0.31 72 1015.0
20260831164556 70 230 7.0 15.0 0.01 0.47 0.31 70 1014.9
20260831163556 69 269 7.0 17.0 0.01 0.47 0.31 72 1014.8
20260831162552 69 262 6.0 15.0 0.01 0.47 0.31 73 1014.7
20260831161553 69 269 4.0 10.0 0.01 0.47 0.31 76 1014.6
20260831161149 72 273 7.0 16.0 0.00 0.46 0.30 62 1014.3
20260831161016 70 249 6.0 13.0 0.00 0.46 0.30 66 1014.5
20260831160625 69 246 5.0 12.0 0.00 0.46 0.30 69 1014.6
20260831154715 72 251 8.0 20.0 0.00 0.46 0.30 63 1014.4
20260831154601 71 307 7.0 16.0 0.00 0.46 0.30 64 1014.5
20260831151550 71 262 7.0 15.0 0.00 0.46 0.30 64 1014.2
20260831150552 71 283 8.0 17.0 0.00 0.46 0.30 65 1014.1
20260831145548 70 283 9.0 17.0 0.00 0.46 0.30 66 1014.2
20260831144704 70 259 8.0 15.0 0.00 0.46 0.30 66 1013.8
20260831144554 70 275 7.0 15.0 0.00 0.46 0.30 67 1014.1
20260831142548 70 294 8.0 15.0 0.00 0.46 0.30 67 1013.5
20260831141553 69 306 8.0 16.0 0.00 0.46 0.30 66 1013.5
20260831140552 70 295 8.0 17.0 0.01 0.46 0.30 65 1013.4
20260831135550 71 309 7.0 17.0 0.01 0.46 0.30 64 1013.1
20260831134545 72 5 7.0 16.0 0.01 0.46 0.30 65 1012.9
20260831134039 71 308 6.0 15.0 0.01 0.46 0.30 68 1012.8
20260831132546 70 224 8.0 16.0 0.01 0.46 0.30 70 1012.7
20260831131545 68 281 8.0 22.0 0.01 0.46 0.30 73 1012.7
20260831130545 67 247 8.0 18.0 0.00 0.46 0.29 78 1012.5
20260831125541 67 299 9.0 17.0 0.00 0.46 0.29 77 1012.5
20260831124541 68 283 9.0 16.0 0.00 0.46 0.29 74 1012.3
20260831123542 67 265 8.0 17.0 0.00 0.46 0.29 75 1012.1
20260831122545 68 255 7.0 16.0 0.00 0.46 0.29 76 1012.1
20260831121541 70 244 7.0 15.0 0.00 0.46 0.29 72 1011.9
20260831120540 69 258 9.0 19.0 0.00 0.46 0.29 72 1011.8
20260831115703 67 288 8.0 19.0 0.02 0.46 0.29 73 1011.7
20260831115542 68 255 8.0 18.0 0.00 0.46 0.29 73 1011.7
20260831115521 68 283 9.0 20.0 0.02 0.46 0.29 74 1011.6
20260831112722 65 170 7.0 19.0 0.02 0.46 0.29 79 1011.2
20260831112543 67 236 7.0 21.0 0.02 0.46 0.29 74 1011.4
20260831110533 65 234 7.0 15.0 0.02 0.46 0.29 85 1011.0
20260831105536 65 294 7.0 20.0 0.02 0.46 0.29 83 1011.1
20260831104532 67 248 7.0 17.0 0.00 0.44 0.28 80 1010.7
20260831103532 67 127 7.0 15.0 0.00 0.44 0.28 80 1010.6
20260831102531 67 242 8.0 21.0 0.00 0.44 0.28 82 1010.6